ONEWEB-0109

Last updated on Mon Jan 18 2021 00:02:03 GMT+0000 (Coordinated Universal Time)

1 47259U 20100B 21017.58334491 -.01387509 00000-0 -14652+0 0 9990 2 47259 87.3424 29.1674 0009223 155.5486 94.3857 14.92800316 1872

Satellite not in orbit

ONEWEB-0109